Hurricane Symbol View the latest observations near East Pacific Tropical Storm Bud.

Station MEYC1 - 9413450 - Monterey, CA Image indicating link to RSS feed of recent meteorological observations for station MEYC1


Conditions at MEYC1 as of
(4:36 pm PDT)
2336 GMT on 07/24/2024:
     

Click on the graph icon in the table below to see a time series plot of the last five days of that observation.

5-day plot - Atmospheric Pressure Atmospheric Pressure (PRES):30.03 in
5-day plot - Water Temperature Water Temperature (WTMP): 55.0 °F
NOS Water Level Observation Network Water Level
Previous observations
TIME
(PDT)
5-day plot - Wind Direction
WDIR
 
5-day plot - Wind Speed
WSPD
kts
5-day plot - Wind Gust
GST
kts
5-day plot - Wave Height
WVHT
ft
5-day plot - Dominant Wave Period
DPD
sec
5-day plot - Average Wave Period
APD
sec
5-day plot - Mean Wave Direction
MWD
 
5-day plot - Atmospheric Pressure
PRES
in
5-day plot - Pressure Tendency
PTDY
in
5-day plot - Air Temperature
ATMP
°F
5-day plot - Water Temperature
WTMP
°F
5-day plot - Dew Point
DEWP
°F
5-day plot - Salinity
SAL
psu
5-day plot - Visibility
VIS
nmi
5-day plot - Tide (above MLLW)
TIDE
ft
2024-07-24 04:30 pm-------30.03-- 55.0----
2024-07-24 04:24 pm-------30.03-- 55.0----
2024-07-24 04:18 pm-------30.03-- 55.0----
2024-07-24 04:12 pm-------30.03-- 55.0----
2024-07-24 04:06 pm-------30.04-- 55.2----
2024-07-24 04:00 pm-------30.04+0.00- 55.2----
2024-07-24 03:54 pm-------30.04-- 55.4----
2024-07-24 03:48 pm-------30.04-- 55.4----
2024-07-24 03:42 pm-------30.05-- 55.6----
2024-07-24 03:36 pm-------30.04-- 55.6----
2024-07-24 03:30 pm-------30.05-- 55.8----
2024-07-24 03:24 pm-------30.05-- 55.9----
2024-07-24 03:18 pm-------30.05-- 56.3----
2024-07-24 03:12 pm-------30.05-- 56.5----
2024-07-24 03:06 pm-------30.05-- 56.5----
2024-07-24 03:00 pm-------30.05+0.00- 56.7----
2024-07-24 02:54 pm-------30.05-- 56.8----
2024-07-24 02:48 pm-------30.05-- 57.0----
2024-07-24 02:42 pm-------30.05-- 57.2----
2024-07-24 02:36 pm-------30.05-- 57.4----
2024-07-24 02:30 pm-------30.05-- 57.9----
2024-07-24 02:24 pm-------30.05-- 59.0----
2024-07-24 02:18 pm-------30.05-- 59.7----
2024-07-24 02:12 pm-------30.05-- 60.4----
2024-07-24 02:06 pm-------30.05-- 61.2----
2024-07-24 02:00 pm-------30.05+0.00- 62.1----
2024-07-24 01:54 pm-------30.05-- 62.4----
2024-07-24 01:48 pm-------30.05-- 62.4----
2024-07-24 01:42 pm-------30.05-- 62.2----
2024-07-24 01:36 pm-------30.04-- 61.9----
2024-07-24 01:30 pm-------30.04-- 61.7----
2024-07-24 01:24 pm-------30.04-- 61.2----
2024-07-24 01:18 pm-------30.04-- 60.6----
2024-07-24 01:12 pm-------30.04-- 60.4----
2024-07-24 01:06 pm-------30.05-- 60.3----
2024-07-24 01:00 pm-------30.05+0.00- 60.1----
2024-07-24 12:54 pm-------30.05-- 59.9----
2024-07-24 12:48 pm-------30.05-- 59.0----
2024-07-24 12:42 pm-------30.05-- 57.9----
2024-07-24 12:36 pm-------30.05-- 58.1----
2024-07-24 12:30 pm-------30.05-- 58.6----
2024-07-24 12:24 pm-------30.05-- 58.6----
2024-07-24 12:18 pm-------30.05-- 58.5----
2024-07-24 12:12 pm-------30.05-- 58.3----
2024-07-24 12:06 pm-------30.05-- 57.9----
2024-07-24 12:00 pm-------30.05+0.01- 57.7----
2024-07-24 11:54 am-------30.05-- 57.7----
2024-07-24 11:48 am-------30.05-- 57.7----
2024-07-24 11:42 am-------30.05-- 57.7----
2024-07-24 11:36 am-------30.05-- 57.9----
2024-07-24 11:30 am-------30.05-- 57.7----
2024-07-24 11:24 am-------30.05-- 57.9----
2024-07-24 11:18 am-------30.05-- 57.9----
2024-07-24 11:12 am-------30.05-- 57.9----
2024-07-24 11:06 am-------30.05-- 57.7----
2024-07-24 11:00 am-------30.05+0.02- 57.7----
2024-07-24 10:54 am-------30.05-- 57.7----
2024-07-24 10:48 am-------30.05-- 57.7----
2024-07-24 10:42 am-------30.05-- 57.7----
2024-07-24 10:36 am-------30.05-- 57.7----
2024-07-24 10:30 am-------30.05-- 57.7----
2024-07-24 10:24 am-------30.05-- 57.7----
2024-07-24 10:18 am-------30.05-- 57.9----
2024-07-24 10:12 am-------30.04-- 57.9----
2024-07-24 10:06 am-------30.04-- 58.1----
2024-07-24 10:00 am-------30.04+0.03- 57.9----
2024-07-24 09:54 am-------30.04-- 58.1----
2024-07-24 09:48 am-------30.04-- 58.3----
2024-07-24 09:42 am-------30.04-- 58.3----
2024-07-24 09:36 am-------30.04-- 58.5----
2024-07-24 09:30 am-------30.04-- 58.6----
2024-07-24 09:24 am-------30.04-- 58.6----
2024-07-24 09:18 am-------30.04-- 58.6----
2024-07-24 09:12 am-------30.04-- 58.6----
2024-07-24 09:06 am-------30.04-- 58.5----
2024-07-24 09:00 am-------30.04+0.03- 58.5----
2024-07-24 08:54 am-------30.04-- 58.6----
2024-07-24 08:48 am-------30.04-- 58.5----
2024-07-24 08:42 am-------30.04-- 58.6----
2024-07-24 08:36 am-------30.04-- 58.5----
2024-07-24 08:30 am-------30.04-- 58.3----
2024-07-24 08:24 am-------30.04-- 58.5----
2024-07-24 08:18 am-------30.03-- 58.5----
2024-07-24 08:12 am-------30.03-- 58.6----
2024-07-24 08:06 am-------30.03-- 58.8----
2024-07-24 08:00 am-------30.03+0.04- 58.6----
2024-07-24 07:54 am-------30.03-- 58.6----
2024-07-24 07:48 am-------30.03-- 58.6----
2024-07-24 07:42 am-------30.03-- 58.6----
2024-07-24 07:36 am-------30.03-- 58.6----
2024-07-24 07:30 am-------30.03-- 58.8----
2024-07-24 07:24 am-------30.02-- 58.6----
2024-07-24 07:18 am-------30.02-- 58.6----
2024-07-24 07:12 am-------30.02-- 58.6----
2024-07-24 07:06 am-------30.02-- 58.6----
2024-07-24 07:00 am-------30.01+0.04- 58.6----
2024-07-24 06:54 am-------30.01-- 58.6----
2024-07-24 06:48 am-------30.01-- 58.8----
2024-07-24 06:42 am-------30.01-- 58.8----
2024-07-24 06:36 am-------30.01-- 58.6----
2024-07-24 06:30 am-------30.01-- 58.6----
2024-07-24 06:24 am-------30.01-- 58.6----
2024-07-24 06:18 am-------30.01-- 58.6----
2024-07-24 06:12 am-------30.01-- 58.6----
2024-07-24 06:06 am-------30.01-- 58.6----
2024-07-24 06:00 am-------30.01+0.03- 58.6----
2024-07-24 05:54 am-------30.01-- 58.6----
2024-07-24 05:48 am-------30.01-- 58.6----
2024-07-24 05:42 am-------30.01-- 58.6----
2024-07-24 05:36 am-------30.00-- 58.5----
2024-07-24 05:30 am-------30.00-- 58.5----
2024-07-24 05:24 am-------30.00-- 58.6----
2024-07-24 05:18 am-------30.00-- 58.6----
2024-07-24 05:12 am-------30.00-- 58.8----
2024-07-24 05:06 am-------30.00-- 58.8----
2024-07-24 05:00 am-------29.99+0.02- 59.0----
2024-07-24 04:54 am-------29.99-- 59.2----
2024-07-24 04:48 am-------29.99-- 59.2----
2024-07-24 04:42 am-------29.99-- 59.4----
2024-07-24 04:36 am-------29.99-- 59.9----
2024-07-24 04:30 am-------29.99-- 59.9----
2024-07-24 04:24 am-------29.98-- 59.9----
2024-07-24 04:18 am-------29.98-- 60.1----
2024-07-24 04:12 am-------29.98-- 59.9----
2024-07-24 04:06 am-------29.98-- 59.7----
2024-07-24 04:00 am-------29.98+0.01- 59.5----
2024-07-24 03:54 am-------29.98-- 59.5----
2024-07-24 03:48 am-------29.98-- 59.5----
2024-07-24 03:42 am-------29.97-- 59.7----
2024-07-24 03:36 am-------29.97-- 59.7----
2024-07-24 03:30 am-------29.97-- 59.9----
2024-07-24 03:24 am-------29.97-- 60.3----
2024-07-24 03:18 am-------29.97-- 60.4----
2024-07-24 03:12 am-------29.98-- 60.4----
2024-07-24 03:06 am-------29.97-- 60.4----
2024-07-24 03:00 am-------29.98+0.01- 60.6----
2024-07-24 02:54 am-------29.98-- 60.6----
2024-07-24 02:48 am-------29.98-- 60.6----
2024-07-24 02:42 am-------29.98-- 60.6----
2024-07-24 02:36 am-------29.98-- 60.6----
2024-07-24 02:30 am-------29.98-- 60.6----
2024-07-24 02:24 am-------29.98-- 60.8----
2024-07-24 02:18 am-------29.97-- 60.8----
2024-07-24 02:12 am-------29.97-- 60.8----
2024-07-24 02:06 am-------29.97-- 60.8----
2024-07-24 02:00 am-------29.97+0.00- 60.8----
2024-07-24 01:54 am-------29.97-- 60.8----
2024-07-24 01:48 am-------29.97-- 60.8----
2024-07-24 01:42 am-------29.97-- 60.8----
2024-07-24 01:36 am-------29.97-- 60.8----
2024-07-24 01:30 am-------29.97-- 60.8----
2024-07-24 01:24 am-------29.97-- 60.8----
2024-07-24 01:18 am-------29.97-- 61.0----
2024-07-24 01:12 am-------29.97-- 61.0----
2024-07-24 01:06 am-------29.97-- 61.0----
2024-07-24 01:00 am-------29.97+0.02- 61.0----
2024-07-24 12:54 am-------29.97-- 61.0----
2024-07-24 12:48 am-------29.97-- 61.0----
2024-07-24 12:42 am-------29.97-- 61.0----
2024-07-24 12:36 am-------29.97-- 61.2----
2024-07-24 12:30 am-------29.97-- 61.2----
2024-07-24 12:24 am-------29.97-- 61.2----
2024-07-24 12:18 am-------29.97-- 61.2----
2024-07-24 12:12 am-------29.97-- 61.2----
2024-07-24 12:06 am-------29.97-- 61.3----
2024-07-24 12:00 am-------29.97+0.03- 61.3----
2024-07-23 11:54 pm-------29.97-- 61.5----
2024-07-23 11:48 pm-------29.97-- 61.5----
2024-07-23 11:42 pm-------29.97-- 61.5----
2024-07-23 11:36 pm-------29.97-- 61.5----
2024-07-23 11:30 pm-------29.97-- 61.5----
2024-07-23 11:24 pm-------29.97-- 61.5----
2024-07-23 11:18 pm-------29.97-- 61.7----
2024-07-23 11:12 pm-------29.97-- 61.7----
2024-07-23 11:06 pm-------29.96-- 61.7----
2024-07-23 11:00 pm-------29.96+0.04- 61.7----
2024-07-23 10:54 pm-------29.96-- 61.7----
2024-07-23 10:48 pm-------29.96-- 61.7----
2024-07-23 10:42 pm-------29.96-- 61.9----
2024-07-23 10:36 pm-------29.96-- 61.9----
2024-07-23 10:30 pm-------29.96-- 61.7----
2024-07-23 10:24 pm-------29.96-- 61.7----
2024-07-23 10:18 pm-------29.96-- 61.7----
2024-07-23 10:12 pm-------29.96-- 61.9----
2024-07-23 10:06 pm-------29.95-- 62.1----
2024-07-23 10:00 pm-------29.95+0.05- 62.1----
2024-07-23 09:54 pm-------29.95-- 62.2----
2024-07-23 09:48 pm-------29.95-- 62.2----
2024-07-23 09:42 pm-------29.95-- 62.4----
2024-07-23 09:36 pm-------29.95-- 62.2----
2024-07-23 09:30 pm-------29.94-- 62.4----
2024-07-23 09:24 pm-------29.94-- 62.4----
2024-07-23 09:18 pm-------29.94-- 62.4----
2024-07-23 09:12 pm-------29.94-- 62.6----
2024-07-23 09:06 pm-------29.94-- 62.6----
2024-07-23 09:00 pm-------29.94+0.05- 62.6----
2024-07-23 08:54 pm-------29.94-- 62.8----
2024-07-23 08:48 pm-------29.93-- 62.8----
2024-07-23 08:42 pm-------29.93-- 62.8----
2024-07-23 08:36 pm-------29.93-- 62.8----
2024-07-23 08:30 pm-------29.93-- 63.0----
2024-07-23 08:24 pm-------29.93-- 63.1----
2024-07-23 08:18 pm-------29.93-- 63.1----
2024-07-23 08:12 pm-------29.92-- 63.1----
2024-07-23 08:06 pm-------29.92-- 63.3----
2024-07-23 08:00 pm-------29.92+0.03- 63.5----
2024-07-23 07:54 pm-------29.92-- 63.5----
2024-07-23 07:48 pm-------29.91-- 63.7----
2024-07-23 07:42 pm-------29.91-- 63.5----
2024-07-23 07:36 pm-------29.91-- 63.7----
2024-07-23 07:30 pm-------29.91-- 63.7----
2024-07-23 07:24 pm-------29.91-- 63.9----
2024-07-23 07:18 pm-------29.91-- 63.9----
2024-07-23 07:12 pm-------29.91-- 63.9----
2024-07-23 07:06 pm-------29.91-- 63.9----
2024-07-23 07:00 pm-------29.91+0.01- 63.9----
2024-07-23 06:54 pm-------29.91-- 63.9----
2024-07-23 06:48 pm-------29.91-- 63.9----
2024-07-23 06:42 pm-------29.90-- 63.9----
2024-07-23 06:36 pm-------29.90-- 64.0----
2024-07-23 06:30 pm-------29.90-- 64.2----
2024-07-23 06:24 pm-------29.90-- 64.2----
2024-07-23 06:18 pm-------29.90-- 64.0----
2024-07-23 06:12 pm-------29.89-- 64.2----
2024-07-23 06:06 pm-------29.89-- 64.0----
2024-07-23 06:00 pm-------29.89-0.01- 64.0----
2024-07-23 05:54 pm-------29.89-- 64.0----
2024-07-23 05:48 pm-------29.89-- 64.2----
2024-07-23 05:42 pm-------29.89-- 64.2----
2024-07-23 05:36 pm-------29.89-- 64.2----
2024-07-23 05:30 pm-------29.89-- 64.2----
2024-07-23 05:24 pm-------29.89-- 64.0----
2024-07-23 05:18 pm-------29.89-- 63.9----
2024-07-23 05:12 pm-------29.89-- 63.9----
2024-07-23 05:06 pm-------29.89-- 64.0----
2024-07-23 05:00 pm-------29.89-0.02- 64.0----
2024-07-23 04:54 pm-------29.89-- 64.0----